Погода в Тишанке

Россия / Белгородская область     50°23′22″N   37°31′09″E
темп.,
°C
ветер,
м/с
пор.,
м/с
влажн.,
%
обл.,
%
осадки,
мм/ч
давл.,
гПа
погр.,
м
15 мая, сб
сб1500:00+16юз35935 0.3 101094
03:00+14юз22850 0.4 101122
06:00+13ююз3485100 0.0 101191
09:00+17ююз467292 0.0 1013366
12:00+21юз56550 0.0 10131256
15:00+22ююз595231 0.0 10132234
18:00+21ююз36634 0.0 1013340
21:00+16юз33740 0.0 101322
16 мая, вс
вс1600:00+15ююз22750 0.0 101416
03:00+14ююв22740 0.0 101411
06:00+14вюв117561 0.0 101411
09:00+20вюв23618 0.0 1014351
12:00+23в2349100 0.0 10141325
15:00+24всв3451100 0.0 10131558
18:00+23св476976 0.0 1011322
21:00+18всв498572 0.3 1011155
17 мая, пн
пн1700:00+16всв498139 0.0 1010138
03:00+15всв5137156 0.0 1009219
06:00+14в413775 0.0 1008217
09:00+21вюв6156071 0.0 1008629
12:00+24юв916555 0.0 10071365
15:00+25юв710565 0.0 10071250
18:00+23юв6116699 0.0 1006518
21:00+18юв41379100 0.0 1006293
18 мая, вт
вт1800:00+17ююв379098 0.0 1006124
03:00+15ю4109514 0.0 1007248
06:00+14ю5109355 0.0 1007434
09:00+17ю797898 0.0 1008778
12:00+18ююз61078100 0.0 1008804
15:00+22ююз7963100 0.6 10071549
18:00+19ю387642 2.3 1007314
21:00+16ююв41187100 3.6 1007216
19 мая, ср
ср1900:00+14ююв4119297 0.3 1006271
03:00+14ююв51196100 0.6 1006363
06:00+14ю71296100 5.9 1005567
09:00+15ююз71191100 16.4 1006801
12:00+16зюз10137548 1.5 10081303
15:00+16зюз8106886 1.7 10101449
18:00+15зюз57795 0.8 1010891
21:00+12з22875 1.1 101224